Back to catalog

STARLINK-5176

AliveCommunicationsVLEO
NORAD 54053·PAYLOAD·🇺🇸 United States

Launched Oct 20, 2022 from Cape Canaveral Space Force Station

Loading…

Next Passes (next 24 hours)

TLE

FreshSource: CelesTrak SupGP

Epoch: Sep 14, 2026, 13:38 UTC

1 54053C 22136C   26257.56854167 -.00017629  00000+0 -56688-3 0  2574
2 54053  53.1575 202.4725 0001596  88.6863 336.0007 15.31710710    13

Track STARLINK-5176 in real time with AllMySat

Download on the App Store